QPF
0.00 0.01 0.01 0.00 0.01 0.00 0.01 0.00 0.00 0.00 0.00 0.00 0.00 0.00 0.00 0.00 0.00 0.00 0.00 0.00 0.00 0.00 0.00 0.00 0.00 0.00 0.00 0.00 0.00 0.00 0.00 0.00 0.00 0.00 0.00 0.00 0.00 0.00 0.00 0.00 0.00 0.00 0.00 0.00
0.00 0.00 0.00 0.01 0.01 0.00 0.01 0.00 0.00 0.00 0.00 0.00 0.00 0.00 0.00 0.01 0.01 0.00 0.00 0.00 0.00 0.00 0.00 0.00 0.00 0.00 0.00 0.00 0.00 0.00 0.00 0.00 0.00 0.00 0.00 0.00 0.00 0.00 0.00 0.00 0.00 0.00 0.00 0.00
0.00 0.01 0.00 0.00 0.00 0.00 0.00 0.00 0.00 0.00 0.00 0.00 0.00 0.00 0.01 0.02 0.02 0.01 0.01 0.01 0.01 0.00 0.00 0.01 0.00 0.00 0.00 0.00 0.00 0.01 0.01 0.00 0.00 0.00 0.00 0.00 0.00 0.00 0.01 0.01 0.00 0.00 0.00 0.00
0.01 0.01 0.01 0.00 0.00 0.00 0.01 0.00 0.00 0.00 0.00 0.01 0.01 0.01 0.02 0.02 0.02 0.02 0.01 0.01 0.01 0.01 0.01 0.01 0.01 0.01 0.01 0.01 0.01 0.01 0.01 0.01 0.01 0.01 0.01 0.01 0.01 0.00 0.01 0.00 0.00 0.00 0.00 0.00
0.01 0.01 0.00 0.00 0.01 0.01 0.02 0.01 0.01 0.01 0.01 0.01 0.02 0.02 0.02 0.02 0.01 0.02 0.01 0.01 0.01 0.01 0.01 0.01 0.01 0.01 0.02 0.02 0.02 0.02 0.02 0.02 0.01 0.01 0.00 0.00 0.00 0.00 0.00 0.00 0.00 0.00 0.00 0.00
0.01 0.01 0.01 0.00 0.01 0.02 0.02 0.01 0.01 0.01 0.01 0.02 0.03 0.03 0.03 0.02 0.02 0.02 0.02 0.02 0.02 0.01 0.01 0.01 0.01 0.01 0.01 0.01 0.01 0.01 0.01 0.00 0.00 0.00 0.00 0.00 0.00 0.00 0.00 0.00 0.00 0.00 0.00 0.00
0.02 0.02 0.01 0.01 0.01 0.02 0.03 0.01 0.01 0.01 0.01 0.02 0.02 0.02 0.02 0.02 0.02 0.03 0.03 0.03 0.02 0.01 0.01 0.01 0.01 0.01 0.01 0.01 0.01 0.01 0.01 0.00 0.00 0.01 0.01 0.00 0.00 0.01 0.00 0.01 0.00 0.00 0.00 0.00
0.03 0.02 0.01 0.01 0.02 0.03 0.03 0.01 0.01 0.02 0.02 0.03 0.03 0.03 0.02 0.02 0.02 0.02 0.02 0.03 0.03 0.02 0.02 0.02 0.02 0.01 0.01 0.01 0.01 0.01 0.01 0.01 0.01 0.01 0.01 0.00 0.00 0.00 0.00 0.00 0.00 0.00 0.00 0.00
0.03 0.02 0.02 0.02 0.02 0.03 0.02 0.02 0.02 0.02 0.02 0.02 0.03 0.03 0.02 0.02 0.01 0.01 0.01 0.02 0.02 0.02 0.02 0.01 0.01 0.01 0.01 0.02 0.03 0.03 0.03 0.02 0.02 0.01 0.01 0.01 0.00 0.00 0.00 0.00 0.00 0.00 0.00 0.00
0.01 0.01 0.02 0.02 0.02 0.02 0.02 0.02 0.03 0.02 0.02 0.02 0.03 0.03 0.03 0.03 0.02 0.02 0.02 0.02 0.02 0.01 0.01 0.02 0.02 0.02 0.03 0.04 0.04 0.04 0.03 0.03 0.03 0.02 0.02 0.01 0.01 0.00 0.00 0.00 0.00 0.00 0.00 0.00
0.02 0.02 0.02 0.02 0.02 0.02 0.02 0.03 0.03 0.02 0.02 0.02 0.02 0.02 0.02 0.02 0.02 0.01 0.02 0.02 0.02 0.02 0.03 0.02 0.03 0.03 0.04 0.04 0.04 0.04 0.03 0.03 0.03 0.02 0.02 0.01 0.01 0.01 0.01 0.01 0.01 0.00 0.00 0.00
0.03 0.03 0.03 0.04 0.05 0.04 0.04 0.03 0.03 0.02 0.03 0.03 0.03 0.02 0.02 0.01 0.01 0.01 0.02 0.02 0.02 0.03 0.04 0.04 0.05 0.05 0.05 0.04 0.03 0.03 0.03 0.02 0.02 0.02 0.02 0.01 0.01 0.00 0.00 0.00 0.00 0.00 0.00 0.00
0.07 0.05 0.05 0.05 0.05 0.04 0.03 0.02 0.02 0.02 0.02 0.03 0.03 0.02 0.02 0.02 0.02 0.01 0.01 0.02 0.03 0.04 0.05 0.06 0.06 0.06 0.05 0.03 0.03 0.02 0.02 0.02 0.02 0.02 0.01 0.01 0.01 0.00 0.00 0.00 0.00 0.00 0.00 0.00
0.08 0.07 0.07 0.05 0.05 0.04 0.03 0.03 0.02 0.02 0.01 0.01 0.02 0.03 0.03 0.02 0.02 0.02 0.02 0.02 0.02 0.03 0.03 0.02 0.02 0.02 0.02 0.02 0.02 0.02 0.02 0.02 0.02 0.02 0.02 0.02 0.01 0.01 0.01 0.00 0.00 0.00 0.00 0.00
0.07 0.08 0.09 0.06 0.05 0.04 0.03 0.03 0.03 0.02 0.01 0.01 0.01 0.02 0.02 0.01 0.01 0.01 0.01 0.01 0.01 0.01 0.01 0.01 0.02 0.03 0.03 0.03 0.03 0.03 0.04 0.04 0.04 0.04 0.03 0.03 0.03 0.02 0.01 0.01 0.00 0.00 0.00 0.00
0.07 0.09 0.07 0.05 0.05 0.05 0.04 0.03 0.02 0.01 0.01 0.01 0.01 0.01 0.00 0.00 0.00 0.00 0.00 0.00 0.00 0.01 0.01 0.02 0.02 0.03 0.03 0.03 0.03 0.04 0.05 0.05 0.04 0.03 0.02 0.02 0.02 0.01 0.01 0.01 0.01 0.01 0.01 0.01
0.08 0.09 0.07 0.07 0.06 0.04 0.03 0.03 0.02 0.01 0.01 0.00 0.00 0.00 0.00 0.00 0.00 0.00 0.00 0.00 0.00 0.00 0.00 0.01 0.01 0.02 0.01 0.02 0.02 0.02 0.02 0.02 0.01 0.01 0.01 0.01 0.01 0.01 0.01 0.01 0.01 0.01 0.01 0.01
0.06 0.05 0.05 0.05 0.04 0.03 0.03 0.02 0.01 0.01 0.01 0.00 0.00 0.00 0.00 0.00 0.00 0.00 0.00 0.00 0.00 0.00 0.00 0.00 0.00 0.00 0.00 0.00 0.00 0.00 0.00 0.00 0.00 0.00 0.00 0.00 0.00 0.00 0.00 0.00 0.00 0.00 0.00 0.01
0.04 0.03 0.03 0.03 0.03 0.04 0.03 0.02 0.01 0.01 0.01 0.00 0.00 0.00 0.00 0.00 0.00 0.00 0.00 0.00 0.00 0.00 0.00 0.00 0.00 0.00 0.00 0.00 0.00 0.00 0.00 0.00 0.00 0.00 0.00 0.00 0.00 0.00 0.00 0.00 0.00 0.00 0.01 0.01
0.03 0.02 0.02 0.02 0.02 0.02 0.02 0.01 0.00 0.00 0.00 0.00 0.00 0.00 0.00 0.00 0.00 0.00 0.00 0.00 0.00 0.00 0.00 0.00 0.00 0.00 0.00 0.00 0.00 0.00 0.00 0.00 0.00 0.00 0.00 0.00 0.00 0.01 0.01 0.01 0.00 0.01 0.01 0.01
0.01 0.01 0.01 0.01 0.01 0.01 0.01 0.00 0.00 0.00 0.00 0.00 0.00 0.00 0.00 0.00 0.00 0.00 0.00 0.00 0.00 0.00 0.00 0.00 0.00 0.00 0.00 0.00 0.00 0.00 0.00 0.00 0.00 0.00 0.00 0.00 0.00 0.01 0.01 0.01 0.01 0.02 0.02 0.02
0.01 0.01 0.01 0.01 0.01 0.01 0.00 0.00 0.00 0.00 0.00 0.00 0.00 0.00 0.00 0.00 0.00 0.00 0.00 0.00 0.00 0.00 0.00 0.00 0.00 0.00 0.00 0.00 0.00 0.00 0.00 0.00 0.00 0.00 0.00 0.00 0.01 0.01 0.01 0.01 0.02 0.02 0.03 0.04
0.02 0.02 0.01 0.01 0.01 0.00 0.00 0.00 0.00 0.01 0.01 0.01 0.01 0.01 0.00 0.00 0.00 0.00 0.00 0.00 0.00 0.00 0.00 0.00 0.00 0.00 0.00 0.00 0.00 0.00 0.00 0.00 0.00 0.00 0.00 0.00 0.01 0.01 0.01 0.01 0.02 0.03 0.03 0.03
0.02 0.01 0.01 0.00 0.00 0.00 0.00 0.00 0.00 0.00 0.00 0.00 0.00 0.00 0.00 0.00 0.00 0.00 0.00 0.00 0.00 0.00 0.00 0.00 0.00 0.00 0.00 0.00 0.00 0.00 0.00 0.00 0.00 0.00 0.00 0.01 0.01 0.01 0.02 0.02 0.03 0.04 0.04 0.04
0.00 0.00 0.00 0.00 0.00 0.00 0.00 0.00 0.00 0.00 0.00 0.00 0.00 0.00 0.00 0.00 0.00 0.00 0.00 0.00 0.00 0.00 0.00 0.00 0.00 0.00 0.00 0.00 0.00 0.00 0.00 0.00 0.01 0.01 0.01 0.01 0.02 0.02 0.02 0.03 0.04 0.04 0.05 0.06
0.00 0.00 0.00 0.00 0.00 0.00 0.00 0.00 0.00 0.00 0.00 0.00 0.00 0.00 0.00 0.00 0.00 0.00 0.00 0.00 0.00 0.00 0.00 0.00 0.00 0.00 0.01 0.00 0.00 0.00 0.01 0.01 0.01 0.01 0.02 0.02 0.02 0.03 0.03 0.04 0.05 0.05 0.05 0.06
0.00 0.00 0.00 0.00 0.00 0.00 0.00 0.00 0.00 0.00 0.00 0.00 0.00 0.00 0.00 0.00 0.00 0.00 0.00 0.00 0.00 0.00 0.00 0.01 0.01 0.01 0.00 0.01 0.01 0.01 0.01 0.02 0.02 0.02 0.02 0.03 0.04 0.04 0.05 0.05 0.05 0.05 0.05 0.04
MSLP
1011.12 1011.77 1012.44 1013.08 1013.63 1014.00 1014.16 1014.07 1013.72 1013.13 1012.38 1011.53 1010.67 1009.90 1009.29 1008.88 1008.70 1008.72 1008.92 1009.27 1009.71 1010.20 1010.71 1011.23 1011.77 1012.32 1012.89 1013.47 1014.07 1014.66 1015.23 1015.75 1016.21 1016.60 1016.91 1017.16 1017.36 1017.52 1017.68 1017.82 1017.96 1018.08 1018.17 1018.22
1011.18 1011.73 1012.26 1012.72 1013.06 1013.26 1013.27 1013.08 1012.69 1012.14 1011.48 1010.75 1010.04 1009.39 1008.87 1008.50 1008.30 1008.27 1008.38 1008.61 1008.94 1009.35 1009.81 1010.34 1010.91 1011.53 1012.19 1012.87 1013.56 1014.23 1014.85 1015.40 1015.87 1016.26 1016.57 1016.81 1017.00 1017.17 1017.33 1017.48 1017.62 1017.74 1017.83 1017.85
1011.41 1011.81 1012.16 1012.42 1012.56 1012.58 1012.44 1012.17 1011.77 1011.27 1010.70 1010.10 1009.52 1009.00 1008.57 1008.24 1008.02 1007.92 1007.93 1008.05 1008.27 1008.58 1008.99 1009.49 1010.09 1010.76 1011.49 1012.25 1013.01 1013.74 1014.41 1015.00 1015.48 1015.88 1016.18 1016.42 1016.62 1016.80 1016.96 1017.12 1017.26 1017.38 1017.45 1017.45
1011.73 1011.96 1012.11 1012.16 1012.11 1011.96 1011.71 1011.38 1010.98 1010.53 1010.06 1009.59 1009.14 1008.73 1008.38 1008.08 1007.85 1007.69 1007.61 1007.62 1007.73 1007.95 1008.29 1008.76 1009.35 1010.05 1010.82 1011.63 1012.45 1013.23 1013.93 1014.54 1015.04 1015.44 1015.75 1015.99 1016.20 1016.38 1016.56 1016.72 1016.86 1016.97 1017.02 1017.00
1012.02 1012.06 1012.01 1011.88 1011.66 1011.37 1011.04 1010.67 1010.29 1009.91 1009.54 1009.19 1008.87 1008.56 1008.28 1008.01 1007.77 1007.57 1007.41 1007.33 1007.34 1007.48 1007.76 1008.18 1008.75 1009.44 1010.22 1011.06 1011.89 1012.69 1013.40 1014.02 1014.52 1014.93 1015.25 1015.50 1015.72 1015.91 1016.09 1016.26 1016.40 1016.50 1016.53 1016.49
1012.13 1011.99 1011.77 1011.48 1011.14 1010.77 1010.39 1010.03 1009.69 1009.39 1009.13 1008.89 1008.68 1008.47 1008.25 1008.02 1007.78 1007.55 1007.34 1007.18 1007.13 1007.19 1007.40 1007.77 1008.30 1008.96 1009.72 1010.54 1011.36 1012.14 1012.84 1013.45 1013.95 1014.36 1014.68 1014.94 1015.17 1015.37 1015.56 1015.73 1015.87 1015.95 1015.96 1015.89
1011.94 1011.65 1011.30 1010.91 1010.50 1010.10 1009.74 1009.42 1009.16 1008.95 1008.80 1008.68 1008.57 1008.44 1008.29 1008.10 1007.87 1007.63 1007.39 1007.19 1007.08 1007.08 1007.24 1007.55 1008.02 1008.62 1009.33 1010.10 1010.87 1011.61 1012.28 1012.86 1013.35 1013.74 1014.07 1014.33 1014.57 1014.78 1014.97 1015.13 1015.25 1015.32 1015.31 1015.21
1011.39 1011.00 1010.58 1010.16 1009.75 1009.39 1009.08 1008.85 1008.70 1008.61 1008.56 1008.55 1008.54 1008.49 1008.40 1008.25 1008.05 1007.81 1007.57 1007.35 1007.21 1007.18 1007.28 1007.53 1007.93 1008.46 1009.09 1009.78 1010.48 1011.15 1011.76 1012.29 1012.75 1013.12 1013.44 1013.70 1013.93 1014.14 1014.32 1014.47 1014.57 1014.61 1014.57 1014.45
1010.53 1010.11 1009.68 1009.29 1008.95 1008.67 1008.48 1008.37 1008.34 1008.37 1008.44 1008.53 1008.60 1008.63 1008.60 1008.50 1008.34 1008.13 1007.90 1007.69 1007.54 1007.48 1007.54 1007.73 1008.06 1008.50 1009.03 1009.62 1010.21 1010.79 1011.33 1011.80 1012.21 1012.55 1012.84 1013.09 1013.31 1013.50 1013.66 1013.78 1013.85 1013.85 1013.78 1013.63
1009.50 1009.09 1008.72 1008.42 1008.19 1008.05 1008.00 1008.04 1008.14 1008.29 1008.47 1008.65 1008.79 1008.89 1008.91 1008.86 1008.75 1008.58 1008.39 1008.20 1008.06 1008.00 1008.03 1008.17 1008.41 1008.76 1009.18 1009.64 1010.13 1010.60 1011.04 1011.44 1011.79 1012.09 1012.35 1012.57 1012.76 1012.92 1013.04 1013.12 1013.13 1013.09 1012.97 1012.79
1008.47 1008.13 1007.86 1007.69 1007.61 1007.62 1007.73 1007.90 1008.14 1008.40 1008.66 1008.91 1009.12 1009.27 1009.34 1009.34 1009.28 1009.17 1009.03 1008.89 1008.77 1008.71 1008.72 1008.81 1008.99 1009.23 1009.54 1009.88 1010.24 1010.60 1010.94 1011.26 1011.54 1011.79 1012.00 1012.18 1012.33 1012.44 1012.51 1012.52 1012.47 1012.35 1012.18 1011.95
1007.65 1007.41 1007.27 1007.23 1007.31 1007.47 1007.72 1008.02 1008.36 1008.70 1009.03 1009.33 1009.57 1009.76 1009.88 1009.93 1009.92 1009.87 1009.79 1009.70 1009.63 1009.58 1009.58 1009.63 1009.73 1009.89 1010.08 1010.31 1010.55 1010.80 1011.04 1011.27 1011.48 1011.67 1011.84 1011.97 1012.06 1012.11 1012.10 1012.03 1011.90 1011.70 1011.45 1011.16
1007.18 1007.05 1007.03 1007.13 1007.34 1007.63 1007.99 1008.38 1008.78 1009.17 1009.53 1009.85 1010.12 1010.32 1010.47 1010.56 1010.61 1010.61 1010.60 1010.57 1010.53 1010.51 1010.51 1010.53 1010.57 1010.64 1010.74 1010.86 1010.99 1011.14 1011.29 1011.44 1011.59 1011.72 1011.83 1011.91 1011.94 1011.92 1011.83 1011.67 1011.45 1011.16 1010.82 1010.46
1007.11 1007.08 1007.17 1007.38 1007.69 1008.07 1008.49 1008.93 1009.36 1009.76 1010.12 1010.43 1010.68 1010.89 1011.05 1011.17 1011.26 1011.32 1011.35 1011.38 1011.39 1011.39 1011.38 1011.38 1011.37 1011.38 1011.39 1011.42 1011.46 1011.53 1011.61 1011.70 1011.79 1011.88 1011.94 1011.97 1011.94 1011.85 1011.68 1011.43 1011.11 1010.72 1010.29 1009.84
1007.42 1007.47 1007.64 1007.93 1008.29 1008.72 1009.16 1009.60 1010.01 1010.39 1010.71 1010.98 1011.21 1011.39 1011.55 1011.68 1011.79 1011.89 1011.97 1012.03 1012.07 1012.09 1012.08 1012.05 1012.01 1011.96 1011.91 1011.87 1011.85 1011.86 1011.89 1011.93 1011.99 1012.05 1012.08 1012.07 1012.00 1011.85 1011.60 1011.27 1010.86 1010.38 1009.85 1009.32
1008.00 1008.12 1008.34 1008.66 1009.05 1009.47 1009.90 1010.30 1010.67 1010.98 1011.25 1011.46 1011.63 1011.78 1011.91 1012.03 1012.14 1012.25 1012.35 1012.43 1012.49 1012.51 1012.50 1012.45 1012.38 1012.29 1012.19 1012.11 1012.05 1012.02 1012.02 1012.05 1012.09 1012.14 1012.16 1012.13 1012.03 1011.83 1011.54 1011.14 1010.65 1010.09 1009.48 1008.86
1008.74 1008.90 1009.14 1009.47 1009.85 1010.24 1010.62 1010.97 1011.26 1011.50 1011.68 1011.82 1011.92 1012.01 1012.10 1012.19 1012.28 1012.38 1012.47 1012.54 1012.59 1012.61 1012.58 1012.51 1012.41 1012.29 1012.17 1012.06 1011.97 1011.93 1011.93 1011.96 1012.01 1012.06 1012.09 1012.06 1011.95 1011.74 1011.41 1010.97 1010.43 1009.81 1009.14 1008.45
1009.52 1009.68 1009.94 1010.25 1010.59 1010.94 1011.26 1011.53 1011.75 1011.90 1012.00 1012.06 1012.09 1012.11 1012.13 1012.17 1012.22 1012.28 1012.34 1012.38 1012.41 1012.39 1012.34 1012.25 1012.12 1011.98 1011.84 1011.72 1011.63 1011.59 1011.60 1011.64 1011.72 1011.79 1011.84 1011.82 1011.72 1011.51 1011.17 1010.72 1010.15 1009.49 1008.77 1008.03
1010.23 1010.40 1010.63 1010.92 1011.22 1011.52 1011.78 1011.98 1012.12 1012.20 1012.22 1012.19 1012.15 1012.09 1012.04 1012.02 1012.01 1012.01 1012.02 1012.02 1012.00 1011.95 1011.86 1011.74 1011.59 1011.44 1011.29 1011.16 1011.08 1011.05 1011.07 1011.14 1011.23 1011.33 1011.40 1011.41 1011.32 1011.13 1010.80 1010.35 1009.77 1009.10 1008.37 1007.60
1010.84 1010.99 1011.21 1011.46 1011.73 1011.97 1012.17 1012.32 1012.39 1012.40 1012.35 1012.26 1012.14 1012.02 1011.91 1011.81 1011.74 1011.68 1011.63 1011.58 1011.51 1011.42 1011.29 1011.15 1010.98 1010.81 1010.65 1010.53 1010.45 1010.42 1010.46 1010.53 1010.64 1010.76 1010.84 1010.87 1010.80 1010.62 1010.31 1009.87 1009.31 1008.65 1007.91 1007.14
1011.34 1011.48 1011.67 1011.89 1012.11 1012.31 1012.46 1012.56 1012.58 1012.54 1012.44 1012.29 1012.12 1011.95 1011.78 1011.62 1011.49 1011.38 1011.28 1011.18 1011.07 1010.94 1010.79 1010.62 1010.44 1010.26 1010.10 1009.97 1009.89 1009.86 1009.89 1009.96 1010.07 1010.18 1010.26 1010.28 1010.22 1010.05 1009.75 1009.33 1008.78 1008.14 1007.42 1006.65
1011.78 1011.89 1012.04 1012.22 1012.40 1012.56 1012.67 1012.72 1012.70 1012.62 1012.49 1012.31 1012.11 1011.90 1011.69 1011.51 1011.34 1011.19 1011.06 1010.93 1010.79 1010.65 1010.48 1010.30 1010.12 1009.93 1009.76 1009.63 1009.53 1009.48 1009.49 1009.53 1009.60 1009.68 1009.73 1009.73 1009.66 1009.48 1009.19 1008.77 1008.24 1007.62 1006.92 1006.18
1012.18 1012.25 1012.36 1012.49 1012.62 1012.73 1012.80 1012.81 1012.77 1012.67 1012.51 1012.32 1012.11 1011.89 1011.68 1011.49 1011.31 1011.16 1011.02 1010.88 1010.75 1010.60 1010.44 1010.27 1010.08 1009.90 1009.72 1009.56 1009.44 1009.36 1009.32 1009.31 1009.32 1009.34 1009.34 1009.29 1009.18 1008.97 1008.67 1008.26 1007.74 1007.14 1006.46 1005.75
1012.59 1012.61 1012.66 1012.73 1012.80 1012.86 1012.88 1012.85 1012.78 1012.67 1012.51 1012.33 1012.13 1011.93 1011.74 1011.57 1011.42 1011.28 1011.17 1011.06 1010.94 1010.82 1010.67 1010.51 1010.34 1010.15 1009.96 1009.78 1009.63 1009.49 1009.38 1009.30 1009.24 1009.17 1009.10 1008.98 1008.81 1008.57 1008.24 1007.82 1007.32 1006.73 1006.08 1005.40
1013.02 1012.97 1012.96 1012.95 1012.95 1012.94 1012.91 1012.85 1012.76 1012.64 1012.49 1012.33 1012.17 1012.01 1011.86 1011.74 1011.64 1011.55 1011.48 1011.41 1011.33 1011.24 1011.13 1010.99 1010.82 1010.63 1010.42 1010.21 1010.00 1009.81 1009.62 1009.46 1009.30 1009.15 1008.98 1008.79 1008.56 1008.27 1007.92 1007.49 1006.99 1006.43 1005.81 1005.17
1013.46 1013.35 1013.25 1013.16 1013.09 1013.01 1012.92 1012.82 1012.71 1012.59 1012.47 1012.34 1012.22 1012.12 1012.04 1011.98 1011.94 1011.92 1011.90 1011.88 1011.85 1011.79 1011.70 1011.57 1011.41 1011.20 1010.97 1010.72 1010.46 1010.19 1009.93 1009.68 1009.43 1009.19 1008.94 1008.68 1008.39 1008.06 1007.68 1007.25 1006.77 1006.23 1005.66 1005.06
1013.90 1013.71 1013.53 1013.36 1013.21 1013.06 1012.93 1012.80 1012.68 1012.56 1012.47 1012.38 1012.33 1012.29 1012.28 1012.29 1012.32 1012.36 1012.39 1012.41 1012.41 1012.37 1012.29 1012.16 1011.98 1011.75 1011.48 1011.18 1010.86 1010.53 1010.19 1009.86 1009.54 1009.22 1008.90 1008.58 1008.24 1007.89 1007.50 1007.08 1006.62 1006.13 1005.61 1005.06
Thickness
5730 5736 5735 5734 5733 5725 5718 5716 5710 5719 5723 5741 5749 5752 5756 5756 5754 5751 5748 5747 5746 5744 5741 5738 5734 5731 5728 5724 5719 5715 5709 5704 5701 5698 5694 5690 5686 5683 5680 5677 5673 5670 5666 5662
5727 5734 5732 5729 5733 5731 5726 5725 5722 5727 5731 5751 5754 5755 5755 5755 5752 5750 5750 5750 5749 5746 5743 5739 5736 5733 5728 5723 5719 5713 5708 5704 5700 5695 5691 5688 5684 5681 5677 5673 5670 5666 5662 5658
5707 5719 5723 5715 5731 5732 5730 5732 5730 5725 5740 5751 5749 5752 5755 5755 5754 5753 5753 5752 5750 5748 5746 5743 5740 5736 5729 5724 5717 5711 5706 5702 5697 5693 5689 5685 5682 5677 5673 5670 5666 5662 5658 5654
5696 5705 5695 5720 5741 5740 5733 5733 5735 5737 5743 5747 5749 5753 5757 5758 5756 5755 5755 5752 5751 5749 5746 5744 5740 5734 5728 5721 5714 5708 5703 5699 5695 5690 5686 5682 5677 5674 5670 5665 5661 5657 5654 5650
5686 5688 5699 5720 5733 5732 5725 5725 5736 5735 5741 5744 5747 5748 5749 5754 5755 5756 5757 5755 5753 5750 5746 5741 5735 5729 5722 5715 5709 5704 5700 5696 5693 5688 5683 5678 5673 5670 5666 5661 5657 5653 5649 5645
5682 5684 5686 5714 5732 5735 5726 5718 5737 5736 5736 5737 5739 5730 5737 5749 5750 5751 5752 5750 5747 5743 5738 5733 5729 5723 5716 5710 5704 5701 5699 5696 5691 5686 5680 5675 5671 5666 5661 5657 5653 5649 5645 5641
5679 5680 5693 5720 5728 5727 5705 5715 5734 5733 5733 5732 5731 5732 5737 5742 5744 5744 5744 5742 5740 5736 5732 5729 5724 5718 5710 5705 5702 5702 5697 5691 5686 5681 5676 5671 5666 5662 5656 5651 5647 5643 5639 5637
5672 5673 5687 5719 5720 5713 5714 5725 5727 5727 5727 5726 5727 5730 5733 5734 5735 5735 5734 5733 5732 5729 5725 5721 5717 5710 5704 5701 5701 5696 5690 5684 5679 5675 5671 5667 5660 5656 5650 5645 5640 5637 5633 5631
5681 5688 5704 5710 5713 5717 5717 5718 5721 5721 5722 5722 5722 5722 5724 5725 5725 5725 5724 5723 5722 5719 5714 5710 5708 5704 5699 5697 5692 5687 5681 5676 5672 5668 5663 5659 5654 5649 5644 5639 5634 5631 5628 5625
5683 5694 5702 5707 5711 5713 5714 5714 5715 5715 5715 5715 5713 5713 5714 5714 5714 5712 5712 5711 5710 5708 5704 5700 5698 5697 5694 5689 5684 5679 5673 5668 5663 5659 5655 5651 5646 5642 5638 5633 5629 5625 5622 5620
5680 5691 5697 5704 5706 5708 5708 5708 5708 5707 5707 5705 5705 5703 5703 5702 5702 5701 5700 5700 5699 5697 5694 5690 5687 5685 5682 5679 5675 5670 5665 5660 5655 5651 5647 5643 5639 5635 5632 5629 5626 5621 5619 5615
5680 5691 5690 5694 5701 5703 5700 5697 5697 5697 5695 5694 5694 5692 5692 5690 5689 5688 5688 5687 5686 5684 5682 5679 5676 5673 5671 5669 5665 5660 5655 5650 5645 5641 5637 5634 5630 5627 5625 5622 5619 5614 5611 5607
5685 5689 5687 5689 5692 5693 5690 5687 5687 5686 5684 5682 5682 5682 5680 5678 5676 5676 5675 5675 5674 5672 5669 5667 5665 5661 5659 5657 5654 5650 5645 5640 5636 5632 5628 5624 5620 5617 5615 5615 5611 5607 5604 5600
5681 5681 5678 5678 5677 5679 5678 5677 5675 5673 5672 5671 5669 5668 5668 5666 5664 5663 5662 5662 5662 5660 5658 5655 5653 5649 5647 5645 5642 5638 5634 5631 5626 5621 5618 5615 5611 5607 5604 5602 5601 5600 5598 5593
5672 5674 5670 5668 5667 5666 5666 5665 5662 5659 5658 5657 5657 5656 5654 5652 5651 5650 5650 5650 5649 5647 5645 5643 5640 5637 5635 5633 5630 5626 5622 5619 5615 5611 5607 5603 5600 5597 5593 5590 5588 5588 5587 5585
5660 5661 5660 5657 5654 5653 5652 5651 5648 5645 5645 5644 5643 5642 5641 5640 5639 5638 5637 5636 5634 5632 5630 5629 5627 5625 5624 5621 5618 5614 5610 5607 5603 5599 5595 5592 5588 5585 5582 5579 5577 5575 5574 5572
5648 5644 5643 5642 5640 5639 5639 5638 5636 5634 5633 5632 5631 5630 5629 5628 5626 5625 5624 5622 5620 5618 5617 5616 5614 5613 5611 5608 5604 5600 5597 5593 5590 5585 5581 5578 5575 5572 5569 5566 5564 5563 5562 5560
5638 5635 5634 5632 5630 5627 5626 5625 5625 5623 5622 5621 5620 5619 5617 5616 5614 5612 5611 5609 5608 5606 5604 5602 5601 5599 5596 5594 5590 5586 5582 5579 5575 5571 5568 5564 5561 5558 5555 5552 5551 5550 5549 5547
5626 5623 5621 5620 5617 5615 5613 5612 5612 5611 5611 5610 5609 5607 5605 5604 5602 5600 5598 5596 5595 5592 5591 5590 5588 5585 5582 5579 5576 5572 5568 5564 5560 5556 5553 5549 5546 5543 5541 5539 5537 5535 5534 5533
5612 5611 5609 5607 5606 5604 5602 5601 5601 5600 5600 5599 5598 5596 5593 5591 5590 5587 5585 5582 5581 5579 5578 5576 5574 5571 5568 5565 5562 5557 5552 5549 5545 5541 5538 5535 5532 5529 5527 5524 5523 5522 5520 5519
5599 5598 5597 5595 5593 5593 5592 5591 5590 5589 5588 5587 5585 5583 5581 5579 5577 5574 5572 5570 5571 5568 5565 5563 5560 5557 5553 5549 5546 5541 5537 5533 5529 5526 5523 5520 5517 5515 5513 5511 5509 5509 5508 5507
5586 5585 5585 5583 5582 5580 5579 5578 5578 5577 5575 5574 5573 5571 5568 5566 5564 5561 5559 5557 5557 5555 5552 5549 5546 5543 5539 5535 5530 5526 5522 5518 5515 5512 5508 5506 5503 5501 5500 5499 5497 5497 5497 5496
5573 5572 5572 5571 5569 5568 5567 5566 5565 5564 5563 5562 5560 5558 5556 5553 5550 5548 5548 5547 5544 5542 5539 5536 5533 5529 5525 5520 5516 5512 5508 5505 5501 5498 5495 5493 5491 5490 5488 5487 5487 5486 5487 5487
5561 5561 5560 5558 5557 5556 5555 5554 5552 5551 5550 5548 5547 5545 5543 5540 5539 5536 5534 5533 5531 5529 5526 5523 5519 5515 5511 5507 5503 5499 5495 5491 5488 5485 5483 5482 5480 5479 5478 5478 5477 5478 5478 5479
5549 5548 5547 5546 5545 5543 5542 5540 5539 5538 5537 5536 5534 5533 5530 5527 5525 5525 5523 5521 5519 5516 5513 5510 5506 5502 5498 5494 5490 5486 5483 5479 5476 5474 5473 5471 5471 5470 5469 5469 5469 5470 5471 5472
5535 5533 5533 5531 5530 5528 5528 5526 5525 5524 5523 5522 5521 5520 5518 5515 5513 5511 5509 5508 5505 5503 5500 5497 5493 5489 5486 5482 5479 5475 5472 5469 5467 5464 5463 5462 5462 5462 5462 5461 5462 5462 5463 5464
5522 5521 5520 5519 5518 5516 5514 5513 5512 5511 5510 5509 5508 5507 5505 5503 5501 5499 5497 5495 5493 5491 5488 5485 5481 5478 5475 5471 5468 5465 5462 5460 5457 5455 5454 5453 5453 5453 5453 5453 5454 5454 5455 5457